Wind_Speed
27 29 30 30 32 32 30 30 31 30 27 25 11 17 21 22 21 13 15 9 14 11 17 21 21 13 9 13 16 13 11 10 19 18 8 5 13 23 25 8 5 29 8 6
29 31 32 31 32 31 31 32 32 29 29 14 20 20 19 17 11 14 14 12 16 15 17 13 8 11 11 11 14 14 15 7 12 4 6 7 30 31 22 14 5 9 8 7
30 32 32 33 29 28 30 31 26 25 16 13 18 23 26 13 14 12 11 15 14 16 21 14 11 17 14 15 11 9 13 9 8 3 14 19 16 20 15 14 5 5 11 10
31 31 32 30 28 30 30 29 23 24 20 22 17 12 14 19 18 12 11 21 17 16 20 22 19 17 18 14 4 9 14 11 7 13 16 9 7 8 9 11 5 5 9 10
31 31 28 25 30 32 30 28 27 24 22 19 16 12 16 15 13 17 24 20 17 22 25 23 27 23 20 18 13 12 10 6 10 15 7 10 8 13 4 9 12 13 10 10
29 27 26 28 31 32 30 28 25 25 25 24 22 19 18 23 19 19 17 22 21 20 18 16 17 18 19 17 16 13 10 4 9 7 8 6 5 15 15 13 9 7 4 5
27 26 26 28 29 25 28 23 25 24 26 20 20 20 22 17 20 19 18 19 15 16 18 17 15 13 11 9 8 7 8 5 4 8 14 5 5 2 6 8 13 9 7 3
27 28 30 29 29 26 20 22 23 26 26 21 21 20 21 20 18 17 16 15 13 15 16 11 7 6 4 6 6 3 2 4 5 4 6 5 2 2 3 3 6 10 10 9
29 30 30 30 28 27 21 22 23 26 27 24 20 19 16 20 20 17 13 12 12 14 9 5 3 3 4 2 1 5 3 1 6 7 1 1 3 4 2 2 1 10 10 9
28 30 29 30 32 29 23 26 25 26 29 27 19 19 16 15 18 16 14 12 7 4 5 8 6 1 2 2 2 4 6 3 3 3 1 2 4 3 5 2 5 8 7 7
30 29 33 34 35 29 23 27 29 26 32 28 16 12 14 17 19 17 14 13 4 4 2 3 2 3 3 2 3 3 5 4 3 2 1 1 3 2 4 3 2 5 5 5
31 34 36 37 38 34 23 28 27 28 25 24 12 13 13 13 11 11 11 10 8 3 3 2 1 4 2 1 1 2 1 2 2 3 1 2 2 3 2 1 1 4 5 5
35 37 39 39 35 24 18 20 19 13 14 10 13 11 8 6 8 8 6 5 7 6 6 6 4 3 3 3 2 2 3 3 3 4 3 3 3 2 3 3 3 2 3 4
37 39 39 35 26 17 17 19 18 17 18 20 12 8 7 8 10 11 14 12 12 10 10 9 7 7 6 5 5 6 6 5 6 6 7 7 9 7 6 5 5 7 6 4
40 39 33 24 23 19 18 17 12 11 13 2 3 5 8 8 9 11 10 13 8 5 6 6 6 7 6 8 8 8 8 8 8 6 7 7 7 7 8 8 8 8 9 10
34 29 24 22 16 12 11 6 7 8 4 6 3 3 6 9 8 6 5 5 5 7 7 7 7 7 5 5 3 4 4 5 6 8 10 9 7 8 8 9 10 9 9 9
25 24 22 20 15 12 8 4 8 7 3 4 2 2 1 2 4 2 3 4 4 4 5 6 7 7 6 7 6 5 5 6 5 5 6 7 7 7 8 8 8 8 9 9
23 22 19 15 14 10 6 2 4 2 5 6 3 3 2 3 2 1 2 5 6 7 6 5 5 4 5 3 2 2 2 4 5 6 6 7 6 6 7 7 7 7 8 9
23 19 15 13 8 6 4 9 9 5 4 4 3 3 1 1 3 3 4 2 4 4 3 4 3 3 2 2 2 1 1 3 4 5 6 6 7 6 6 8 8 7 7 8
21 16 12 7 7 5 5 4 2 2 3 5 6 4 3 5 4 2 3 2 3 1 1 3 2 4 3 2 1 1 2 2 3 5 5 6 7 7 7 7 8 8 9 9
17 11 7 5 5 4 3 3 3 4 4 5 9 9 7 5 1 4 2 2 1 1 2 1 2 3 1 1 2 3 4 5 6 6 6 7 7 8 7 8 7 8 8 9
15 10 6 5 3 3 2 5 4 5 4 11 11 7 6 3 1 3 1 2 3 2 4 2 3 1 1 3 5 5 6 6 7 8 8 8 8 8 8 7 7 7 8 8
11 7 4 3 3 5 6 9 5 7 10 11 9 6 3 1 0 1 1 1 2 5 2 3 3 2 4 6 7 8 8 8 8 8 9 9 9 8 8 8 8 7 7 7
7 3 6 6 7 10 9 11 10 11 11 10 7 5 1 1 1 1 1 3 4 3 3 2 3 4 7 8 8 8 8 9 9 9 9 9 9 9 9 8 8 9 9 9
4 5 7 12 10 12 12 12 11 10 9 8 5 2 3 0 1 2 2 2 5 4 2 5 8 8 8 7 7 8 8 8 8 8 8 8 9 9 10 10 10 10 11 11
12 10 8 10 10 11 11 11 9 8 7 6 2 3 2 4 3 3 5 3 4 3 6 8 8 7 7 7 7 7 7 7 8 8 8 8 8 8 9 10 11 12 12 13
11 14 15 16 15 16 15 12 10 7 7 3 3 3 4 3 4 5 5 4 5 6 6 7 7 6 7 7 8 8 8 8 8 8 8 8 8 8 9 9 10 10 11 11
Wind_Direction
320 320 320 325 327 328 327 329 334 333 332 338 318 320 315 312 312 319 308 295 297 302 309 312 310 310 325 354 345 349 345 300 309 312 239 195 31 14 13 331 190 215 181 97
319 318 319 324 326 328 331 333 333 334 337 329 317 316 302 312 282 297 305 307 304 309 316 311 313 307 294 315 346 353 341 320 331 20 240 277 354 356 2 342 311 16 248 119
318 317 321 323 328 330 331 333 335 332 329 318 312 309 313 322 318 295 303 302 314 306 304 304 298 305 310 323 313 295 312 319 344 293 301 321 328 337 359 3 32 58 69 104
315 318 320 323 328 329 334 336 334 329 315 324 322 321 329 318 304 286 308 310 308 308 311 305 308 302 304 309 270 291 324 312 340 324 325 303 303 7 18 68 62 75 122 95
317 320 322 325 326 331 333 333 333 325 328 332 334 326 331 316 304 312 317 307 304 303 299 292 289 294 302 300 294 300 324 291 326 317 47 173 76 37 43 89 82 104 105 80
317 320 324 328 329 328 328 327 328 324 319 327 326 325 302 303 308 307 310 301 300 315 302 297 283 286 283 287 276 305 309 299 329 294 319 260 70 26 40 64 70 78 89 36
319 319 323 327 326 324 319 319 315 319 311 317 320 313 316 311 306 296 303 303 306 324 314 295 292 285 276 270 272 272 278 313 315 297 345 63 116 59 15 41 57 61 66 62
317 319 324 324 323 326 305 304 305 302 299 306 312 317 310 316 305 289 286 309 306 329 325 315 314 326 259 280 273 264 3 359 327 343 56 141 229 226 284 41 17 25 42 44
318 319 320 321 324 325 308 297 294 295 288 291 305 309 311 320 310 290 295 282 295 318 318 359 302 335 333 16 3 120 339 294 330 327 311 232 334 348 233 209 308 6 15 25
320 321 322 323 323 318 301 298 296 288 288 287 287 301 306 307 308 303 291 297 272 324 314 324 324 8 36 34 51 7 349 340 339 352 44 138 10 100 164 291 306 339 354 353
320 323 321 319 318 317 299 292 297 300 286 274 284 288 294 301 301 285 276 293 225 279 258 264 347 4 27 7 28 11 8 359 359 351 201 210 345 214 216 195 316 336 330 332
322 319 317 317 315 314 295 286 288 294 270 263 272 277 315 307 296 307 265 253 267 248 270 256 270 301 292 2 221 12 246 15 323 307 329 269 82 70 72 57 342 307 308 311
320 319 318 316 318 316 304 296 300 300 283 257 271 304 306 314 334 277 254 201 260 270 281 284 263 248 259 235 208 254 295 304 281 289 303 233 224 308 306 298 303 308 312 323
321 320 317 316 318 309 287 286 293 288 265 277 268 266 250 293 301 276 270 277 271 267 272 264 264 250 266 258 260 255 263 272 271 261 259 263 260 273 280 286 300 308 309 304
322 319 320 322 319 314 296 290 287 276 237 316 247 216 272 287 302 295 270 263 238 259 262 260 262 271 263 263 259 253 263 255 246 256 251 258 263 266 279 285 294 297 300 306
323 323 327 326 325 322 326 326 288 286 302 231 230 237 273 308 310 289 270 259 243 273 267 262 266 263 246 253 245 258 260 258 243 244 255 265 266 270 280 289 297 298 301 299
329 328 328 327 326 318 315 266 262 288 283 197 198 265 255 327 331 332 261 258 273 267 272 267 253 249 236 252 252 266 261 264 257 247 255 258 262 271 280 284 285 293 299 301
333 332 330 324 324 328 332 276 203 111 187 194 191 167 204 348 275 207 294 305 287 279 270 255 229 221 213 235 228 244 258 256 253 257 262 270 278 278 283 286 289 297 302 303
337 335 328 326 331 330 275 297 331 357 193 170 171 163 224 340 334 325 329 295 307 284 239 219 215 186 145 163 168 193 224 245 259 268 277 285 288 292 291 290 295 300 293 293
338 337 332 326 338 336 320 344 32 91 105 100 83 48 335 318 312 225 248 254 277 267 184 171 185 114 127 165 221 252 262 267 272 281 288 288 288 290 289 295 299 298 300 304
341 342 351 0 5 356 17 37 46 43 76 42 10 354 353 341 322 228 243 216 269 205 171 174 110 105 120 300 283 286 286 290 290 288 286 284 287 292 298 301 304 305 307 305
347 353 344 340 357 9 37 40 34 28 20 355 345 343 336 336 151 167 202 188 207 126 160 168 99 124 0 321 312 307 304 302 299 296 295 292 290 290 294 300 303 306 308 310
347 349 346 11 26 35 43 20 6 341 340 336 338 329 317 112 292 194 229 212 117 150 140 86 95 0 328 318 313 310 306 303 298 297 295 292 291 289 289 293 299 304 309 313
352 17 34 42 34 22 360 349 342 338 342 343 336 320 349 320 277 188 87 118 149 86 65 64 345 322 320 315 311 309 308 308 305 301 296 292 291 292 292 291 294 299 303 304
36 44 45 25 12 351 331 327 327 329 334 342 339 358 9 326 123 98 116 85 65 69 62 308 321 322 319 315 313 313 316 316 313 308 302 297 291 288 289 291 292 292 293 295
60 54 35 9 347 335 333 330 323 322 338 341 9 67 62 56 52 68 64 64 63 342 325 325 325 328 326 324 324 323 322 321 318 317 316 313 305 299 296 293 291 291 293 293
59 43 36 27 17 13 14 17 21 28 17 46 86 59 66 55 52 51 47 34 338 330 335 332 334 331 330 329 328 326 324 323 322 321 321 317 315 314 310 306 305 303 300 298
Height
3082 3078 3073 3069 3063 3059 3055 3051 3047 3043 3039 3035 3030 3028 3025 3024 3022 3020 3018 3016 3014 3012 3010 3008 3006 3004 3001 2998 2995 2992 2989 2984 2979 2978 2975 2974 2973 2974 2972 2968 2963 2965 2966 2987
3076 3072 3067 3063 3058 3053 3048 3044 3041 3036 3032 3029 3026 3024 3023 3021 3019 3018 3015 3014 3012 3010 3008 3007 3003 3001 3000 2997 2994 2992 2989 2985 2980 2977 2973 2969 2969 2967 2971 2967 2964 2966 2963 2982
3071 3066 3061 3057 3053 3049 3044 3040 3035 3031 3028 3026 3023 3018 3016 3017 3017 3014 3012 3011 3009 3006 3004 3003 3001 2999 2996 2995 2993 2992 2989 2987 2987 2988 2984 2981 2976 2974 2973 2971 2968 2970 2972 2976
3066 3061 3056 3052 3047 3043 3040 3034 3030 3027 3026 3022 3020 3018 3015 3012 3012 3011 3009 3006 3006 3004 3000 2997 2996 2995 2994 2993 2991 2989 2988 2986 2986 2983 2981 2978 2977 2976 2974 2970 2970 2970 2975 2975
3060 3055 3050 3048 3043 3038 3034 3031 3028 3023 3019 3018 3016 3014 3011 3009 3007 3007 3004 3002 3000 3000 2997 2996 2991 2991 2991 2989 2989 2987 2986 2985 2984 2981 2980 2978 2978 2978 2975 2974 2972 2973 2974 2976
3055 3050 3046 3041 3036 3031 3026 3022 3021 3017 3017 3014 3012 3011 3009 3006 3004 3002 3001 2999 2996 2994 2992 2989 2988 2987 2986 2985 2985 2985 2984 2984 2983 2979 2979 2978 2981 2982 2979 2978 2978 2977 2976 2978
3050 3046 3042 3037 3032 3027 3022 3020 3017 3013 3010 3009 3008 3006 3004 3002 3000 2997 2996 2994 2993 2991 2987 2985 2984 2982 2982 2982 2983 2983 2983 2983 2982 2979 2976 2981 2987 2985 2982 2981 2981 2980 2979 2980
3045 3040 3036 3032 3027 3023 3018 3015 3013 3009 3004 3005 3004 3002 2999 2997 2994 2993 2991 2991 2990 2987 2985 2982 2980 2980 2980 2980 2980 2982 2982 2982 2981 2980 2980 2983 2983 2984 2983 2982 2983 2981 2978 2974
3039 3035 3031 3026 3021 3017 3013 3010 3008 3004 3000 2998 2998 2996 2995 2992 2989 2989 2989 2988 2987 2985 2983 2982 2981 2980 2980 2980 2980 2980 2981 2981 2982 2981 2980 2980 2981 2979 2978 2979 2980 2977 2974 2974
3033 3029 3024 3020 3015 3011 3007 3003 3001 2998 2993 2993 2992 2992 2990 2988 2986 2985 2984 2984 2984 2983 2982 2981 2981 2980 2980 2980 2980 2980 2980 2980 2980 2980 2980 2981 2980 2978 2978 2978 2981 2975 2977 2976
3026 3022 3018 3013 3008 3003 3000 2997 2994 2991 2985 2984 2985 2986 2985 2983 2981 2980 2982 2983 2981 2981 2981 2981 2981 2981 2981 2980 2980 2980 2980 2980 2979 2980 2980 2982 2980 2980 2981 2982 2979 2979 2980 2981
3021 3016 3010 3004 2998 2994 2990 2986 2986 2984 2979 2980 2981 2980 2979 2980 2978 2977 2977 2979 2979 2980 2979 2980 2980 2980 2980 2980 2980 2980 2981 2981 2981 2982 2981 2981 2981 2981 2980 2981 2982 2982 2981 2981
3013 3006 3000 2995 2989 2984 2983 2979 2978 2978 2974 2975 2975 2975 2976 2975 2974 2974 2976 2976 2976 2977 2977 2977 2978 2978 2979 2979 2979 2979 2979 2979 2979 2980 2979 2979 2980 2980 2980 2979 2979 2980 2979 2978
3005 2998 2992 2986 2981 2979 2976 2973 2973 2973 2972 2971 2972 2972 2973 2973 2972 2972 2972 2973 2973 2974 2974 2975 2975 2976 2977 2977 2977 2977 2978 2978 2977 2977 2977 2977 2978 2978 2978 2978 2978 2977 2978 2978
2996 2989 2983 2979 2975 2971 2969 2968 2967 2965 2969 2969 2969 2970 2970 2970 2969 2969 2969 2969 2969 2970 2971 2972 2973 2973 2974 2974 2975 2974 2974 2974 2975 2975 2975 2975 2976 2976 2976 2975 2975 2975 2974 2973
2988 2983 2978 2974 2970 2967 2966 2964 2965 2964 2964 2966 2967 2967 2967 2967 2967 2966 2967 2967 2968 2968 2969 2969 2970 2970 2972 2971 2972 2972 2972 2972 2972 2973 2973 2973 2974 2974 2973 2973 2972 2971 2971 2969
2983 2979 2973 2969 2967 2965 2964 2965 2964 2963 2963 2964 2965 2965 2965 2966 2965 2965 2965 2965 2966 2967 2967 2967 2968 2968 2969 2969 2970 2970 2970 2970 2970 2970 2971 2971 2971 2971 2971 2971 2970 2969 2968 2967
2980 2975 2970 2967 2965 2962 2961 2961 2961 2961 2962 2963 2964 2964 2966 2965 2965 2965 2964 2964 2964 2964 2965 2965 2965 2966 2967 2967 2968 2968 2969 2969 2969 2969 2969 2969 2970 2969 2969 2969 2968 2968 2967 2965
2976 2971 2967 2966 2964 2962 2962 2960 2960 2960 2963 2961 2962 2963 2964 2964 2964 2964 2963 2963 2963 2963 2963 2964 2966 2965 2965 2966 2967 2967 2968 2968 2968 2968 2968 2968 2968 2968 2967 2967 2966 2965 2965 2964
2973 2969 2967 2964 2963 2961 2962 2960 2960 2959 2960 2960 2962 2963 2963 2964 2962 2962 2964 2962 2962 2962 2964 2964 2964 2964 2966 2966 2966 2967 2967 2967 2967 2967 2967 2966 2966 2966 2965 2964 2963 2963 2962 2960
2972 2968 2966 2964 2962 2962 2961 2960 2961 2961 2962 2963 2963 2962 2961 2961 2961 2961 2962 2962 2962 2962 2964 2964 2964 2965 2966 2966 2966 2966 2966 2966 2966 2965 2965 2964 2964 2963 2962 2961 2961 2959 2958 2958
2969 2967 2965 2964 2963 2962 2963 2962 2963 2963 2963 2963 2962 2961 2960 2960 2960 2960 2961 2961 2962 2962 2963 2963 2964 2966 2966 2966 2966 2965 2965 2965 2964 2963 2962 2962 2961 2960 2960 2959 2958 2957 2956 2955
2968 2967 2965 2964 2965 2964 2964 2965 2965 2964 2963 2962 2960 2960 2960 2959 2960 2960 2960 2960 2961 2962 2962 2964 2966 2966 2966 2965 2965 2964 2963 2962 2962 2961 2960 2959 2958 2958 2957 2956 2955 2955 2954 2953
2968 2967 2966 2967 2968 2969 2968 2967 2965 2964 2962 2960 2959 2958 2958 2958 2958 2958 2959 2961 2961 2962 2964 2966 2966 2966 2965 2964 2963 2962 2961 2960 2959 2958 2957 2956 2956 2955 2954 2954 2953 2952 2951 2950
2968 2970 2971 2972 2972 2970 2968 2966 2964 2962 2961 2959 2958 2957 2958 2957 2958 2958 2960 2961 2962 2965 2967 2966 2965 2964 2963 2962 2961 2960 2959 2958 2956 2955 2954 2954 2953 2952 2951 2951 2950 2949 2948 2947
2972 2975 2977 2975 2974 2971 2967 2964 2962 2960 2959 2958 2958 2957 2958 2958 2958 2960 2961 2963 2966 2967 2966 2965 2964 2963 2961 2960 2959 2958 2957 2956 2954 2953 2952 2951 2950 2949 2948 2948 2947 2946 2945 2944
2979 2980 2978 2976 2973 2969 2966 2964 2961 2960 2960 2959 2958 2959 2960 2961 2961 2963 2965 2967 2967 2966 2965 2964 2963 2961 2960 2959 2957 2956 2955 2954 2952 2951 2950 2949 2947 2947 2946 2944 2943 2942 2941 2940